Weather reports worldwide

Advertisment
Belgrad, Serbia (13274): temperature & dewpoint: 13.04.2019 01:00:00 - 19.04.2019 01:00:00 (CEST)Belgrad, Serbia (13274): wind speed: 13.04.2019 01:00:00 - 19.04.2019 01:00:00 (CEST)Belgrad, Serbia (13274): wind direction: 13.04.2019 01:00:00 - 19.04.2019 01:00:00 (CEST)Belgrad, Serbia (13274): reduced air pressure: 13.04.2019 01:00:00 - 19.04.2019 01:00:00 (CEST)Belgrad, Serbia (13274): visibility: 13.04.2019 01:00:00 - 19.04.2019 01:00:00 (CEST)
Date & Time tt [°C] td [°C] ff [km/h] ff [kn] dd ppp [hPa] vv [km]
19.04.2019 01:00:00 - - - - - - -
19.04.2019 00:00:00 - - - - - - -
18.04.2019 23:00:00 13,1 8,1 4 2 NW 1027,3 20
18.04.2019 22:00:00 - - - - - - -
18.04.2019 21:00:00 - - - - - - -
18.04.2019 20:00:00 15,0 5,3 4 2 NNE 1026,6 20
18.04.2019 19:00:00 - - - - - - -
18.04.2019 18:00:00 - - - - - - -
18.04.2019 17:00:00 16,7 6,0 11 6 NNE 1025,8 20
18.04.2019 16:00:00 - - - - - - -
18.04.2019 15:00:00 - - - - - - -
18.04.2019 14:00:00 16,1 4,5 11 6 NNE 1025,9 20
18.04.2019 13:00:00 - - - - - - -
18.04.2019 12:00:00 - - - - - - -
18.04.2019 11:00:00 14,8 6,2 7 4 SE 1026,1 15
18.04.2019 10:00:00 - - - - - - -
18.04.2019 09:00:00 - - - - - - -
18.04.2019 08:00:00 10,8 6,6 11 6 SE 1024,8 15
18.04.2019 07:00:00 - - - - - - -
18.04.2019 06:00:00 - - - - - - -
18.04.2019 05:00:00 8,0 6,2 0 0 N 1023,4 20
18.04.2019 04:00:00 - - - - - - -
18.04.2019 03:00:00 - - - - - - -
18.04.2019 02:00:00 10,0 7,0 4 2 NNE 1022,4 20
18.04.2019 01:00:00 - - - - - - -
18.04.2019 00:00:00 - - - - - - -
17.04.2019 23:00:00 10,9 7,4 4 2 N 1021,7 20
17.04.2019 22:00:00 - - - - - - -
17.04.2019 21:00:00 - - - - - - -
17.04.2019 20:00:00 13,1 6,4 4 2 NNE 1020,4 20
17.04.2019 19:00:00 - - - - - - -
17.04.2019 18:00:00 - - - - - - -
17.04.2019 17:00:00 15,4 6,0 7 4 NNW 1019,5 30
17.04.2019 16:00:00 - - - - - - -
17.04.2019 15:00:00 - - - - - - -
17.04.2019 14:00:00 15,2 3,5 11 6 NNW 1020,0 20
17.04.2019 13:00:00 - - - - - - -
17.04.2019 12:00:00 - - - - - - -
17.04.2019 11:00:00 12,0 3,8 7 4 WNW 1020,0 20
17.04.2019 10:00:00 - - - - - - -
17.04.2019 09:00:00 - - - - - - -
17.04.2019 08:00:00 7,0 2,0 7 4 W 1019,7 20
17.04.2019 07:00:00 - - - - - - -
17.04.2019 06:00:00 - - - - - - -
17.04.2019 05:00:00 6,1 2,8 4 2 W 1019,4 30
17.04.2019 04:00:00 - - - - - - -
17.04.2019 03:00:00 - - - - - - -
17.04.2019 02:00:00 7,1 3,3 4 2 S 1003,5 30
17.04.2019 01:00:00 - - - - - - -
17.04.2019 00:00:00 - - - - - - -
16.04.2019 23:00:00 11,2 -0,6 0 0 N 1019,5 30
16.04.2019 22:00:00 - - - - - - -
16.04.2019 21:00:00 - - - - - - -
16.04.2019 20:00:00 14,4 0,6 4 2 N 1019,0 30
16.04.2019 19:00:00 - - - - - - -
16.04.2019 18:00:00 - - - - - - -
16.04.2019 17:00:00 16,9 0,4 7 4 NW 1018,5 20
16.04.2019 16:00:00 - - - - - - -
16.04.2019 15:00:00 - - - - - - -
16.04.2019 14:00:00 15,8 2,3 7 4 NW 1020,0 20
16.04.2019 13:00:00 - - - - - - -
16.04.2019 12:00:00 - - - - - - -
16.04.2019 11:00:00 13,2 3,5 7 4 NNW 1020,8 20
16.04.2019 10:00:00 - - - - - - -
16.04.2019 09:00:00 - - - - - - -
16.04.2019 08:00:00 7,1 0,6 4 2 N 1020,8 15
16.04.2019 07:00:00 - - - - - - -
16.04.2019 06:00:00 - - - - - - -
16.04.2019 05:00:00 7,3 3,3 4 2 NW 1019,7 12
16.04.2019 04:00:00 - - - - - - -
16.04.2019 03:00:00 - - - - - - -
16.04.2019 02:00:00 10,1 9,0 4 2 W 1019,4 12
16.04.2019 01:00:00 - - - - - - -
16.04.2019 00:00:00 - - - - - - -
15.04.2019 23:00:00 10,3 8,6 4 2 WSW 1019,6 15
15.04.2019 22:00:00 - - - - - - -
15.04.2019 21:00:00 - - - - - - -
15.04.2019 20:00:00 11,1 8,4 4 2 W 1018,9 10
15.04.2019 19:00:00 - - - - - - -
15.04.2019 18:00:00 - - - - - - -
15.04.2019 17:00:00 11,1 9,4 4 2 NNE 1017,9 5
15.04.2019 16:00:00 - - - - - - -
15.04.2019 15:00:00 - - - - - - -
15.04.2019 14:00:00 12,8 9,5 4 2 NE 1017,4 5
15.04.2019 13:00:00 - - - - - - -
15.04.2019 12:00:00 - - - - - - -
15.04.2019 11:00:00 11,4 8,8 4 2 NW 1017,9 5
15.04.2019 10:00:00 - - - - - - -
15.04.2019 09:00:00 - - - - - - -
15.04.2019 08:00:00 9,9 9,0 7 4 W 1016,6 4,0
15.04.2019 07:00:00 - - - - - - -
15.04.2019 06:00:00 - - - - - - -
15.04.2019 05:00:00 9,4 8,5 4 2 WNW 1016,0 20
15.04.2019 04:00:00 - - - - - - -
15.04.2019 03:00:00 - - - - - - -
15.04.2019 02:00:00 9,5 8,8 4 2 NW 1015,8 15
15.04.2019 01:00:00 - - - - - - -
15.04.2019 00:00:00 - - - - - - -
14.04.2019 23:00:00 10,3 9,4 4 2 WNW 1015,8 15
14.04.2019 22:00:00 - - - - - - -
14.04.2019 21:00:00 - - - - - - -
14.04.2019 20:00:00 12,1 7,6 4 2 NNE 1014,9 15
14.04.2019 19:00:00 - - - - - - -
14.04.2019 18:00:00 - - - - - - -
14.04.2019 17:00:00 12,3 7,4 4 2 NNW 1014,4 10
14.04.2019 16:00:00 - - - - - - -
14.04.2019 15:00:00 - - - - - - -
14.04.2019 14:00:00 11,9 8,5 7 4 NW 1015,3 4,0
14.04.2019 13:00:00 - - - - - - -
14.04.2019 12:00:00 - - - - - - -
14.04.2019 11:00:00 9,6 7,7 4 2 W 1015,7 4,0
14.04.2019 10:00:00 - - - - - - -
14.04.2019 09:00:00 - - - - - - -
14.04.2019 08:00:00 7,2 6,6 7 4 W 1015,5 4,0
14.04.2019 07:00:00 - - - - - - -
14.04.2019 06:00:00 - - - - - - -
14.04.2019 05:00:00 7,2 6,6 4 2 W 1015,3 4,0
14.04.2019 04:00:00 - - - - - - -
14.04.2019 03:00:00 - - - - - - -
14.04.2019 02:00:00 7,2 6,8 4 2 W 1015,8 4,0
14.04.2019 01:00:00 - - - - - - -
14.04.2019 00:00:00 - - - - - - -
13.04.2019 23:00:00 7,4 6,6 7 4 WSW 1016,5 3,0
13.04.2019 22:00:00 - - - - - - -
13.04.2019 21:00:00 - - - - - - -
13.04.2019 20:00:00 8,4 6,0 7 4 W 1016,1 4,0
13.04.2019 19:00:00 - - - - - - -
13.04.2019 18:00:00 - - - - - - -
13.04.2019 17:00:00 8,2 6,0 7 4 W 1015,8 10
13.04.2019 16:00:00 - - - - - - -
13.04.2019 15:00:00 - - - - - - -
13.04.2019 14:00:00 8,2 6,0 7 4 W 1016,1 10
13.04.2019 13:00:00 - - - - - - -
13.04.2019 12:00:00 - - - - - - -
13.04.2019 11:00:00 7,7 4,7 7 4 WSW 1016,1 10
13.04.2019 10:00:00 - - - - - - -
13.04.2019 09:00:00 - - - - - - -
13.04.2019 08:00:00 6,3 4,2 11 6 W 1015,4 10
13.04.2019 07:00:00 - - - - - - -
13.04.2019 06:00:00 - - - - - - -
13.04.2019 05:00:00 5,9 4,9 7 4 W 1015,3 15
13.04.2019 04:00:00 - - - - - - -
13.04.2019 03:00:00 - - - - - - -
13.04.2019 02:00:00 5,5 4,0 4 2 WSW 1015,4 15
13.04.2019 01:00:00 - - - - - - -

tt = temperature
td = dewpoint
ff = wind speed
dd = wind direction
ppp = reduced air pressure
vv = visibility

Next stations